This is the latest recevied weather packets stored in our database for station/object 7M1JBF-11. If no packets are shown the sender has not sent any weather packets the latest 10 day(s).
| Time | Temp. | Humidity | Pressure | Rain* | Wind** | Luminosity | Snow |
|---|---|---|---|---|---|---|---|
| 1777420031 | 18.33° C | 100% | 1010.6 hPa | 0 mm | - | - | - |
| 1777408607 | 17.22° C | 100% | 1008.8 hPa | 0 mm | - | - | - |
| 1777408003 | 17.22° C | 100% | 1008.8 hPa | 0 mm | - | - | - |
| 1777406801 | 17.78° C | 100% | 1008.5 hPa | 0 mm | - | - | - |
| 1777404997 | 18.33° C | 100% | 1008 hPa | 0 mm | - | - | - |
| 1777404395 | 18.89° C | 100% | 1008 hPa | 0 mm | - | - | - |
| 1777403794 | 19.44° C | 100% | 1008.1 hPa | 0 mm | - | - | - |
| 1777403193 | 19.44° C | 100% | 1008 hPa | 0 mm | - | - | - |
| 1777400186 | 20° C | 100% | 1007.6 hPa | 0 mm | - | - | - |
| 1777398382 | 20° C | 100% | 1007.5 hPa | 0 mm | - | - | - |
| 1777397782 | 20° C | 100% | 1007.5 hPa | 0 mm | - | - | - |
| 1777397179 | 20° C | 100% | 1007.3 hPa | 0 mm | - | - | - |
| 1777396578 | 20° C | 100% | 1007.4 hPa | 0 mm | - | - | - |
| 1777395375 | 20° C | 100% | 1007.7 hPa | 0 mm | - | - | - |
| 1777394172 | 20.56° C | 100% | 1007.6 hPa | 0 mm | - | - | - |
| 1777393571 | 20.56° C | 100% | 1007.7 hPa | 0 mm | - | - | - |
| 1777392368 | 20.56° C | 100% | 1007.8 hPa | 0 mm | - | - | - |
| 1777391767 | 20.56° C | 100% | 1007.8 hPa | 0 mm | - | - | - |
| 1777390564 | 20.56° C | 100% | 1008 hPa | 0 mm | - | - | - |
| 1777389963 | 20.56° C | 100% | 1008 hPa | 0 mm | - | - | - |
| 1777389361 | 20.56° C | 100% | 1008.1 hPa | 0 mm | - | - | - |
| 1777388760 | 20.56° C | 100% | 1008.1 hPa | 0 mm | - | - | - |
| 1777386951 | 20.56° C | 100% | 1008.2 hPa | 0 mm | - | - | - |
| 1777386349 | 20.56° C | 100% | 1007.9 hPa | 0 mm | - | - | - |
| 1777383343 | 20.56° C | 100% | 1007.9 hPa | 0 mm | - | - | - |
* Rain since midnight (hover to see other rain measurements)
** Current wind speed in m/s (hover to see current wind gust speed)